Location: Austin
(30.3000°N, 97.7500°W)
Time: 01:11:45
(UTC-06:00)

Cosmos 1302 Rocket - Pass Details

Date: 04 November 2025
Orbit: 753 x 771 km, 74.0° (Epoch: 15 November)

Event Time Altitude Azimuth Distance (km) Brightness Sun altitude
Rises 19:11:00 0° 341° (NNW) 3,219 7.4 -19.8°
Reaches altitude 10° 19:13:22 10° 339° (NNW) 2,293 6.6 -20.3°
Maximum altitude 19:18:33 73° 256° (WSW) 799 4.2 -21.4°
Drops below altitude 10° 19:23:44 10° 172° (S) 2,293 6.4 -22.6°
Sets 19:26:06 0° 170° (S) 3,218 7.2 -23.1°
